Location: Duni�res
(44.8231°N, 4.6583°E)
Time: 18:41:18
(UTC+00:00)

Daily predictions for brighter satellites

Satellite Brightness Start Highest point End
(mag) Time Altitude Azimuth Time Altitude Azimuth Time Altitude Azimuth
Cosmos 1400 Rocket 3.1 19:55:23 10° N 19:59:12 50° ENE 20:02:57 10° SSE
Cosmos 2056 Rocket 4.0 20:02:14 10° S 20:07:01 40° ESE 20:11:53 10° NE
USA 186 4.3 20:08:05 10° WSW 20:09:29 13° W 20:10:56 10° WNW
Sich 1 Rocket 3.8 20:05:53 10° NNW 20:10:18 72° W 20:14:39 10° S
Cosmos 304 Rocket 3.9 20:07:20 10° SSW 20:12:08 84° WNW 20:17:00 10° NNE
ARIANE 5 R/B 3.9 20:11:29 10° SE 20:15:14 28° ENE 20:19:01 10° N
Cosmos 2297 Rocket 4.1 20:10:37 10° NW 20:15:16 27° WSW 20:19:54 10° SSW
Cosmos 1707 4.2 20:13:08 10° SE 20:16:06 21° E 20:19:05 10° NE
Meteor 1-23 Rocket 4.5 20:11:26 10° SSW 20:17:12 79° W 20:22:56 10° N
Cosmos 1733 3.6 20:13:24 10° NNW 20:17:15 67° W 20:21:04 10° S
Cosmos 2227 Rocket 3.7 20:13:15 10° NW 20:18:15 33° WSW 20:23:13 10° SSW
Cosmos 2263 Rocket 2.7 20:13:37 10° NNW 20:19:09 50° ENE 20:24:35 10° SE
Cosmos 407 Rocket 3.6 20:14:51 10° NNW 20:20:14 83° ENE 20:25:30 10° SSE
SPOT 3 Rocket 3.6 20:15:18 10° SSE 20:20:26 81° ENE 20:25:39 10° NNW
Cosmos 1934 Rocket 4.0 20:14:28 10° N 20:20:35 81° E 20:26:43 10° S
Cosmos 1300 Rocket 4.1 20:18:28 10° NNW 20:22:42 57° W 20:26:55 10° S
Cosmos 1371 Rocket 4.0 20:18:11 10° S 20:23:16 62° ESE 20:28:24 10° NNE
Landsat 7 3.8 20:19:34 10° SSE 20:24:19 85° ENE 20:29:07 10° NNW
Cosmos 1674 Rocket 3.6 20:21:01 10° S 20:25:23 63° E 20:29:45 10° NNE
Cosmos 1190 Rocket 4.1 20:22:55 10° NNW 20:28:14 74° ENE 20:33:19 11° SSE
Cosmos 1420 Rocket 4.4 20:25:14 10° S 20:30:02 40° ESE 20:34:53 10° NE
Geosat 4.2 20:25:22 11° SE 20:30:11 64° ENE 20:35:10 10° NNW
Spot 2 Rocket 3.9 20:27:03 11° SE 20:31:43 48° ENE 20:36:35 10° N
NOSS 3-2 (C) 3.6 20:29:58 10° S 20:35:09 43° ESE 20:41:00 10° NE
OBJECT-B 3.9 20:35:10 10° WSW 20:36:06 11° W 20:37:02 10° WNW
NOSS 3-2 (A) 3.3 20:31:41 10° SSW 20:37:11 76° SE 20:43:33 10° NE
Cosmos 2285 Rocket 4.3 20:31:08 10° S 20:37:16 49° ESE 20:43:25 10° NNE
Okean 2 3.4 20:36:32 10° S 20:40:36 65° E 20:44:39 10° NNE
Cosmos 1726 2.2 20:37:52 10° N 20:41:28 56° E 20:44:15 15° SSE
Cosmos 1842 3.5 20:39:09 10° SSW 20:43:04 74° W 20:47:01 10° N
Cosmos 1605 Rocket 4.1 20:37:02 10° N 20:43:29 78° E 20:49:44 11° SSE
Meteor 1-21 4.3 20:38:04 10° S 20:43:41 62° E 20:49:15 10° NNE
Cosmos 1238 4.5 20:40:19 10° S 20:44:19 83° E 20:47:35 10° N
Cosmos 1766 4.5 20:40:52 10° NNW 20:44:29 39° W 20:48:04 10° SSW
Meteor 2-10 4.0 20:39:25 10° N 20:44:30 89° WSW 20:49:26 11° S
Cosmos 1315 Rocket 3.1 20:41:32 10° N 20:45:37 55° ENE 20:48:45 16° SSE
ERS-1 Rocket 3.5 20:45:11 15° SE 20:49:09 47° ENE 20:53:59 10° N
USA 81 4.2 20:44:49 10° N 20:50:02 57° E 20:54:15 15° SSE
Aureole 2 Rocket 3.7 20:49:20 10° NW 20:51:19 21° WSW 20:53:15 10° SSW
ATLAS 3B R/B 4.4 20:52:48 10° ESE 20:53:11 10° ESE 20:53:34 10° E
Cosmos 1470 2.8 20:52:45 10° N 20:56:45 86° W 20:59:55 16° S
Okean 1 Rocket 3.0 20:52:36 10° N 20:56:59 89° W 21:00:35 15° S
Cosmos 676 Rocket 4.0 20:54:29 10° NNW 20:59:52 83° ENE 21:03:55 18° SSE
SL-16 R/B 2.4 20:55:40 10° S 21:01:07 52° ESE 21:06:37 10° NE
Cosmos 1758 3.3 20:57:15 10° N 21:01:14 66° E 21:03:50 20° SSE
SPOT 5 3.2 20:58:02 17° SSE 21:02:01 62° ENE 21:07:01 10° N
Cosmos 2227 4.2 20:58:05 10° NNW 21:03:46 88° WSW 21:07:57 18° SSE
Cosmos 1954 Rocket 4.0 20:58:33 10° NNW 21:03:55 89° WSW 21:07:54 18° SSE
Cosmos 1455 Rocket 4.0 21:00:06 10° N 21:04:12 35° ENE 21:06:41 20° SE
Cosmos 2322 Rocket 2.5 21:01:48 11° S 21:06:55 45° ESE 21:12:20 10° NE
Cosmos 2360 Rocket 3.2 21:06:00 19° SE 21:08:42 27° ESE 21:13:21 10° NE
USA 238 DEB 3.6 21:03:48 10° SW 21:10:20 88° NW 21:17:15 10° NE
USA 215 3.3 21:04:03 10° ENE 21:10:26 53° SE 21:16:48 10° SSW
USA 238 3.6 21:03:55 10° SW 21:10:27 89° NW 21:17:21 10° NE
Resurs 01 Rocket 3.5 21:09:10 10° SSW 21:12:48 25° W 21:16:26 10° NW
Meteor 2-20 Rocket 4.4 21:07:19 12° S 21:12:55 71° E 21:19:01 10° NNE
SL-8 R/B 4.4 21:12:53 10° WNW 21:17:37 55° N 21:22:19 10° ENE
BREEZE-M DEB (TANK) 2.4 21:16:04 10° SW 21:18:30 65° SSE 21:23:28 10° ENE
Lacrosse 5 2.0 21:14:38 10° NW 21:19:43 69° NE 21:23:12 20° ESE
Genesis I 3.1 21:16:49 10° SSW 21:20:32 61° ESE 21:24:24 10° NE
Cosmos 1459 Rocket 4.2 21:16:08 10° N 21:22:07 56° ENE 21:25:54 23° SSE
Cosmos 1626 3.2 21:24:21 26° ESE 21:25:12 29° E 21:28:26 10° NNE
Cosmos 1980 Rocket 4.1 21:23:18 10° WSW 21:28:17 31° NW 21:33:17 10° N
Cosmos 1953 2.4 21:28:49 10° N 21:32:52 65° E 21:34:36 32° SSE
Terra 1.8 21:30:59 26° SSE 21:33:43 85° ENE 21:38:30 10° NNW
ATLAS CENTAUR R/B 3.9 21:32:17 10° N 21:34:57 16° NE 21:37:41 10° ENE
CENTAUR R/B 2.9 21:30:40 10° SW 21:36:32 67° NW 21:43:37 10° NE
Cosmos 292 Rocket 4.0 21:33:19 10° SSW 21:38:08 71° WNW 21:42:59 10° NNE
Cosmos 1300 4.3 21:36:07 10° NNE 21:39:07 22° ENE 21:40:09 19° E
Cosmos 1674 2.5 21:37:32 31° S 21:39:14 84° E 21:42:58 10° N
H-2A R/B 3.3 21:36:28 10° NNE 21:40:33 71° ESE 21:42:27 30° S
Cosmos 2123 Rocket 4.4 21:37:49 25° SSE 21:41:13 48° E 21:47:14 10° NNE
USA 267 3.8 21:37:34 10° ESE 21:43:54 55° NNE 21:50:16 10° NW
Cosmos 1452 Rocket 3.5 21:39:10 13° SSW 21:43:59 86° WNW 21:49:18 10° NNE
Cosmos 1908 3.1 21:43:05 10° N 21:47:00 84° E 21:48:22 39° SSE
Cosmos 2100 Rocket 4.1 21:43:53 10° N 21:50:18 83° W 21:54:15 25° S
ARIANE 5 R/B 4.0 21:48:39 15° SSW 21:51:35 31° W 21:55:33 10° NNW
Cosmos 1975 Rocket 3.4 21:49:03 21° SSW 21:51:51 63° W 21:56:12 10° N
Cosmos 1844 Rocket 3.0 21:46:23 10° NNW 21:52:00 58° ENE 21:55:01 27° SE
SL-14 R/B 3.8 21:53:13 37° SE 21:54:06 43° E 21:57:56 10° NNE
Aureole 1 Rocket 4.0 21:49:19 10° NNW 21:54:42 68° ENE 21:58:28 28° SE
Cosmos 1850 Rocket 4.0 21:50:53 10° NNW 21:56:14 83° WSW 21:58:43 32° SSE
Cosmos 1025 Rocket 3.0 21:55:41 35° S 21:57:31 79° E 22:01:56 10° N
Cosmos 2333 Rocket 3.0 22:00:00 29° SE 22:01:31 33° ESE 22:06:36 10° NE
Cosmos 2263 Rocket 3.7 21:58:07 10° NW 22:02:47 27° WSW 22:06:17 15° SSW
Meteor 2-11 Rocket 4.5 21:59:05 10° N 22:05:13 79° W 22:08:34 29° S
Cosmos 2228 4.5 22:07:04 10° NNE 22:10:46 26° ENE 22:12:02 22° E
Cosmos 1340 2.7 22:10:27 54° SE 22:10:59 61° E 22:14:43 10° NNE
Meteor 1-24 Rocket 4.2 22:10:05 32° SE 22:11:44 41° E 22:16:45 10° NNE
Cosmos 2173 Rocket 4.5 22:10:17 10° NNW 22:16:30 57° W 22:20:18 24° SSW
Cosmos 2016 Rocket 3.9 22:12:16 10° N 22:18:23 81° W 22:21:23 32° S
Cosmos 1331 Rocket 3.9 22:16:11 30° SSW 22:18:51 87° ESE 22:24:09 10° NNE
Cosmos 1844 3.6 22:17:14 10° NNW 22:22:50 82° ENE 22:25:07 37° SSE
Cosmos 1725 Rocket 4.0 22:20:34 10° N 22:26:46 81° W 22:29:39 34° S
ALOS 2 3.7 22:25:47 27° ESE 22:27:07 33° ENE 22:31:04 10° N
Cosmos 1802 Rocket 4.5 22:25:43 10° NNW 22:31:46 55° W 22:35:07 27° SSW
Cosmos 2219 Rocket 2.4 22:31:32 39° SSE 22:33:11 51° ESE 22:38:39 10° NE
Cosmos 1302 Rocket 4.1 22:32:09 42° SSE 22:33:43 60° ESE 22:38:54 10° NNE
GEOS 3 Rocket 4.0 22:33:47 37° S 22:35:32 52° WSW 22:40:47 10° NW
Cosmos 1606 Rocket 4.3 22:37:21 10° N 22:41:39 43° ENE 22:42:37 37° ESE
Cosmos 2237 Rocket 3.8 22:41:47 18° ESE 22:42:19 18° E 22:46:00 10° ENE
ATLAS 3B R/B 2.6 22:39:31 33° S 22:42:27 62° ESE 22:49:05 10° NE
Cosmos 389 Rocket 3.5 22:39:43 10° N 22:42:52 34° ENE 22:42:52 34° ENE
FALCON 9 DEB 4.2 22:44:12 35° ENE 22:44:12 35° ENE 22:46:21 10° ENE
SL-16 R/B 4.1 22:40:42 10° WSW 22:45:31 28° NW 22:50:22 10° N
Cosmos 1461 2.8 22:42:37 10° NW 22:46:49 67° WSW 22:47:11 62° SSW
Meteor 2-5 Rocket 3.7 22:47:48 35° SSW 22:50:10 75° W 22:55:45 10° N
Cosmos 2322 Rocket 3.8 22:46:05 10° WSW 22:51:08 32° NW 22:56:12 10° N
Cosmos 1346 Rocket 3.0 22:51:09 54° ESE 22:51:19 54° E 22:55:15 10° NNE
Cosmos 2360 Rocket 3.0 22:47:42 14° SW 22:52:24 48° WNW 22:57:52 10° NNE
COSMOS 2428 2.8 22:50:46 43° SSE 22:52:25 59° ESE 22:58:05 10° NNE
Cosmos 1900 4.2 22:48:29 10° NNW 22:53:25 88° WSW 22:54:40 51° SSE
USA 215 3.9 22:47:06 10° NE 22:53:29 57° NNW 22:59:50 10° WSW
Lacrosse 5 rocket 1.5 22:57:45 47° ENE 22:57:45 47° ENE 23:00:29 10° NE
Iridium 2 3.9 22:58:39 56° E 22:58:39 56° E 23:02:21 10° NNE
Cosmos 2322 3.6 22:57:38 35° SSW 23:00:06 85° WNW 23:05:48 10° NNE
Cosmos 1626 4.4 22:58:49 15° WSW 23:00:27 19° WNW 23:03:09 10° NNW
SL-8 R/B 3.7 22:55:39 10° WNW 23:00:28 83° NNE 23:02:46 31° ESE
Cosmos 1486 Rocket 4.4 22:56:12 10° NNW 23:01:21 57° ENE 23:03:10 37° SE
Lacrosse 5 3.2 22:58:15 10° WNW 23:02:17 24° WSW 23:02:23 24° SW
Cosmos 1455 2.7 23:06:21 10° N 23:10:06 47° ENE 23:10:18 46° E
Terra 4.3 23:10:43 10° WSW 23:12:05 11° W 23:13:27 10° WNW
Meteor 2-10 Rocket 3.4 23:07:55 10° NNW 23:13:04 73° W 23:14:19 50° SSW
DNEPR-1 R/B 3.4 23:09:01 10° NW 23:13:15 84° SW 23:13:48 67° SSE
Cosmos 2278 Rocket 2.9 23:08:12 10° NNW 23:13:40 47° ENE 23:16:33 26° ESE
ATLAS CENTAUR R/B 1.5 23:10:03 10° NW 23:14:25 85° NE 23:15:12 60° SE
Cosmos 1300 4.1 23:11:30 10° NNW 23:14:44 27° W 23:15:05 26° W
Okean 1-7 Rocket 4.4 23:17:58 36° ESE 23:18:30 37° E 23:22:38 10° NNE
SAR-Lupe-2 3.6 23:18:04 10° NNE 23:21:26 68° ENE 23:21:26 68° ENE
USA 267 3.4 23:24:45 39° S 23:26:55 55° SW 23:33:20 10° WNW
Cosmos 1992 Rocket 3.9 23:26:26 52° S 23:27:40 75° ESE 23:32:54 10° NNE
Cosmos 1703 3.8 23:30:59 44° E 23:31:00 44° E 23:34:46 10° NNE
Cosmos 968 Rocket 3.6 23:27:57 10° NNW 23:32:59 60° WSW 23:33:58 50° SSW
Cosmos 1844 Rocket 4.2 23:31:09 10° NW 23:35:26 22° W 23:36:40 21° WSW
Cosmos 1891 Rocket 4.4 23:35:23 10° N 23:41:30 80° W 23:43:40 43° S
Cosmos 2333 Rocket 3.2 23:41:58 19° WSW 23:45:40 41° NW 23:51:06 10° NNE
Cosmos 2058 Rocket 2.9 23:41:50 10° N 23:46:20 83° W 23:46:54 66° S
GP-B 3.7 23:43:02 10° NNE 23:47:20 45° E 23:48:05 41° ESE
Cosmos 2228 4.2 23:44:26 10° NNW 23:48:18 30° W 23:48:51 29° WSW
Cosmos 967 Rocket 4.4 23:42:48 10° NW 23:49:10 74° WSW 23:51:28 41° SSE
Cosmos 1513 Rocket 4.4 23:43:50 10° NNW 23:49:53 72° W 23:51:56 43° SSW
Cosmos 1441 Rocket 3.2 23:50:47 67° ESE 23:50:49 68° E 23:54:40 10° NNE
Cosmos 1980 3.7 23:49:19 48° S 23:50:52 69° ESE 23:56:31 10° NNE
